Date String (YYYY-MM-DD hh:mm:ss) UTC,Instrument flags,Ambient pressure (hPa),Sample flow (lpm),Bypass flow (lpm),Sample temperature (°C),Ambient temperature (°C),ASC tube jacket temperature (°C),LED temperature (°C),Box temperature (°C),Sample RH (%),Span deviation,Mass concentration (μg/m³),Mass concentration (μg/m³),Mass concentration (μg/m³)
DateTimeUTC,F1_M11,P_M11,Q1_M11,Q2_M11,T1_M11,T2_M11,T3_M11,T4_M11,T5_M11,U1_M11,ZSPAN_M11,X0_M11,X2_M11,X1_M11
2021-12-16 09:00:00,,0819.4,5.00,0.00,22.5,22.3,00.0,31.4,24.1,07.0,0000.0,0002.72,0000.65,0000.27
2021-12-16 09:01:00,,0819.6,5.00,0.00,22.4,22.0,00.0,31.4,24.0,07.0,0000.0,0002.54,0000.66,0000.27
2021-12-16 09:02:00,,0819.4,5.00,0.00,22.3,21.6,00.0,31.4,23.8,07.0,0000.0,0001.87,0000.59,0000.26
2021-12-16 09:03:00,,0819.6,4.99,0.00,22.3,21.3,00.0,31.4,23.7,07.0,0000.0,0001.79,0000.57,0000.26
2021-12-16 09:04:00,,0819.5,4.99,0.00,22.2,21.3,00.0,31.3,23.6,07.1,0000.0,0001.91,0000.60,0000.27
2021-12-16 09:05:00,,0819.5,5.01,0.00,22.3,21.9,00.0,31.4,23.9,07.1,0000.0,0001.97,0000.61,0000.26
2021-12-16 09:06:00,,0819.3,5.00,0.00,22.4,22.7,00.0,31.4,24.2,07.0,0000.0,0002.03,0000.61,0000.26
2021-12-16 09:07:00,,0819.5,5.00,0.00,22.5,23.4,00.0,31.4,24.5,06.9,0000.0,0002.17,0000.62,0000.26
2021-12-16 09:08:00,,0819.4,5.00,0.00,22.7,23.6,00.0,31.5,24.6,06.9,0000.0,0002.12,0000.64,0000.27
2021-12-16 09:09:00,,0819.4,5.00,0.00,22.6,23.1,00.0,31.5,24.4,06.9,0000.0,0002.00,0000.64,0000.28
2021-12-16 09:10:00,,0819.4,5.01,0.00,22.6,22.6,00.0,31.5,24.2,06.9,0000.0,0002.12,0000.68,0000.27
2021-12-16 09:11:00,,0819.4,5.00,0.00,22.5,22.2,00.0,31.5,24.1,06.9,0000.0,0002.01,0000.67,0000.27
2021-12-16 09:12:00,,0819.5,5.00,0.00,22.5,21.8,00.0,31.5,23.9,07.0,0000.0,0002.03,0000.67,0000.28
2021-12-16 09:13:00,,0819.4,5.01,0.00,22.4,21.5,00.0,31.4,23.8,07.0,0000.0,0002.19,0000.76,0000.29
2021-12-16 09:14:00,,0819.6,5.00,0.00,22.4,21.7,00.0,31.4,23.8,07.0,0000.0,0002.30,0000.81,0000.29
2021-12-16 09:15:00,,0819.7,4.99,0.00,22.4,22.4,00.0,31.5,24.1,07.0,0000.0,0002.21,0000.80,0000.30
2021-12-16 09:16:00,,0819.6,5.00,0.00,22.6,23.1,00.0,31.5,24.5,07.0,0000.0,0002.37,0000.82,0000.29
2021-12-16 09:17:00,,0819.6,5.01,0.00,22.7,23.4,00.0,31.5,24.6,06.9,0000.0,0002.98,0000.86,0000.29
2021-12-16 09:18:00,,0819.6,5.00,0.00,22.7,22.9,00.0,31.5,24.5,06.9,0000.0,0002.70,0000.81,0000.28
2021-12-16 09:19:00,,0819.7,5.00,0.00,22.6,22.5,00.0,31.5,24.3,07.0,0000.0,0002.84,0000.78,0000.27
2021-12-16 09:20:00,,0819.6,4.99,0.00,22.6,22.1,00.0,31.5,24.1,07.0,0000.0,0003.34,0000.77,0000.26
2021-12-16 09:21:00,,0819.8,5.01,0.00,22.5,21.8,00.0,31.5,23.9,07.0,0000.0,0003.18,0000.73,0000.26
2021-12-16 09:22:00,,0819.6,4.98,0.00,22.4,21.5,00.0,31.5,23.8,07.0,0000.0,0003.29,0000.76,0000.26
2021-12-16 09:23:00,,0819.7,5.00,0.00,22.4,21.7,00.0,31.5,23.8,07.0,0000.0,0003.32,0000.77,0000.25
2021-12-16 09:24:00,,0819.8,5.00,0.00,22.5,22.4,00.0,31.5,24.1,07.0,0000.0,0003.41,0000.76,0000.24
2021-12-16 09:25:00,,0819.6,5.00,0.00,22.6,23.1,00.0,31.5,24.4,07.0,0000.0,0003.34,0000.71,0000.24
2021-12-16 09:26:00,,0819.6,5.00,0.00,22.7,23.4,00.0,31.6,24.6,06.9,0000.0,0003.44,0000.71,0000.24
2021-12-16 09:27:00,,0819.5,5.01,0.00,22.7,23.0,00.0,31.6,24.5,06.9,0000.0,0003.32,0000.72,0000.25
2021-12-16 09:28:00,,0819.5,5.00,0.00,22.7,22.5,00.0,31.6,24.3,06.9,0000.0,0002.75,0000.69,0000.25
2021-12-16 09:29:00,,0819.8,5.00,0.00,22.6,22.1,00.0,31.6,24.1,06.9,0000.0,0002.94,0000.72,0000.25
2021-12-16 09:30:00,,0819.8,5.00,0.00,22.5,21.8,00.0,31.5,23.9,07.0,0000.0,0002.50,0000.70,0000.24
2021-12-16 09:31:00,,0819.7,5.00,0.00,22.4,21.5,00.0,31.5,23.8,07.0,0000.0,0001.99,0000.71,0000.24
2021-12-16 09:32:00,,0819.6,5.00,0.00,22.3,21.6,00.0,31.5,23.8,06.9,0000.0,0001.94,0000.68,0000.23
2021-12-16 09:33:00,,0819.8,5.00,0.00,22.4,22.3,00.0,31.5,24.0,06.9,0000.0,0001.78,0000.63,0000.23
2021-12-16 09:34:00,,0819.9,4.99,0.00,22.5,23.0,00.0,31.5,24.4,06.8,0000.0,0001.70,0000.61,0000.24
2021-12-16 09:35:00,,0819.8,5.01,0.00,22.7,23.6,00.0,31.6,24.7,06.8,0000.0,0001.50,0000.56,0000.23
2021-12-16 09:36:00,,0819.9,5.00,0.00,22.8,23.6,00.0,31.6,24.7,06.7,0000.0,0001.42,0000.54,0000.23
2021-12-16 09:37:00,,0820.0,4.99,0.00,22.7,23.1,00.0,31.6,24.5,06.7,0000.0,0001.31,0000.52,0000.23
2021-12-16 09:38:00,,0820.0,5.01,0.00,22.6,22.6,00.0,31.6,24.2,06.8,0000.0,0001.39,0000.50,0000.22
2021-12-16 09:39:00,,0820.0,5.00,0.00,22.5,22.2,00.0,31.6,23.9,06.8,0000.0,0001.48,0000.52,0000.22
2021-12-16 09:40:00,,0819.9,5.02,0.00,22.4,21.8,00.0,31.5,23.8,06.8,0000.0,0001.25,0000.48,0000.22
2021-12-16 09:41:00,,0819.9,4.99,0.00,22.3,21.5,00.0,31.5,23.6,06.8,0000.0,0001.28,0000.48,0000.22
2021-12-16 09:42:00,,0819.9,5.00,0.00,22.1,21.1,00.0,31.4,23.4,06.9,0000.0,0001.27,0000.46,0000.22
2021-12-16 09:43:00,,0820.0,5.00,0.00,22.1,21.1,00.0,31.4,23.3,06.9,0000.0,0001.23,0000.46,0000.22
2021-12-16 09:44:00,,0819.9,5.00,0.00,22.2,21.9,00.0,31.4,23.7,06.9,0000.0,0001.23,0000.46,0000.22
2021-12-16 09:45:00,,0820.0,5.00,0.00,22.3,22.7,00.0,31.4,24.1,06.9,0000.0,0001.21,0000.44,0000.21
2021-12-16 09:46:00,,0819.8,5.00,0.00,22.5,23.3,00.0,31.5,24.3,06.8,0000.0,0001.28,0000.43,0000.21
2021-12-16 09:47:00,,0819.8,5.00,0.00,22.5,23.0,00.0,31.5,24.3,06.7,0000.0,0001.33,0000.43,0000.20
2021-12-16 09:48:00,,0819.7,4.99,0.00,22.4,22.6,00.0,31.5,24.1,06.7,0000.0,0001.46,0000.43,0000.19
2021-12-16 09:49:00,,0819.8,5.01,0.00,22.4,22.2,00.0,31.4,23.9,06.7,0000.0,0001.44,0000.45,0000.19
2021-12-16 09:50:00,,0819.8,4.99,0.00,22.3,21.8,00.0,31.4,23.8,06.8,0000.0,0001.31,0000.44,0000.19
2021-12-16 09:51:00,,0819.8,5.00,0.00,22.2,21.5,00.0,31.4,23.6,06.8,0000.0,0001.31,0000.46,0000.19
2021-12-16 09:52:00,,0819.8,5.00,0.00,22.1,21.2,00.0,31.3,23.4,06.8,0000.0,0001.36,0000.48,0000.19
2021-12-16 09:53:00,,0819.8,5.00,0.00,22.0,21.1,00.0,31.3,23.4,06.9,0000.0,0001.39,0000.49,0000.19
2021-12-16 09:54:00,,0820.0,4.99,0.00,22.1,21.7,00.0,31.3,23.6,06.9,0000.0,0001.57,0000.51,0000.19
2021-12-16 09:55:00,,0820.0,5.00,0.00,22.2,22.5,00.0,31.3,23.9,06.8,0000.0,0001.65,0000.54,0000.19
2021-12-16 09:56:00,,0820.0,5.01,0.00,22.4,23.3,00.0,31.3,24.2,06.8,0000.0,0001.65,0000.54,0000.19
2021-12-16 09:57:00,,0820.2,5.01,0.00,22.5,23.1,00.0,31.4,24.3,06.7,0000.0,0001.51,0000.52,0000.19
2021-12-16 09:58:00,,0820.3,5.01,0.00,22.4,22.7,00.0,31.4,24.1,06.7,0000.0,0001.52,0000.55,0000.19
2021-12-16 09:59:00,,0820.3,5.00,0.00,22.4,22.4,00.0,31.4,24.0,06.8,0000.0,0001.37,0000.53,0000.19
